sat.trackr.live / text

‹ back to catalog

STARLINK-4378

NORAD 53476 · 2022-099M

PAYLOAD ACTIVE UNKNOWN

§ Identity

Operator
Country
US
Launch date
2022-08-12
Launch site
AFWTR
Launch vehicle
Mass (kg)
RCS (m²)

Purposes: comms

External: N2YO · Heavens-Above · Gunter

§ Orbital elements

Epoch: 2026-05-25T02:05:07.505088Z

Period
95.64 min
Inclination
97.4532°
Eccentricity
0.0001141
Mean motion
15.05664679 rev/d
Perigee alt
548.7 km
Apogee alt
550.3 km
Semi-major
6,927.6 km
B*
1.1240e-4
RAAN
265.1172°
Arg perigee
137.9433°
Mean anomaly
222.1882°
Rev number
20,747

§ Raw data

STARLINK-43781 53476U 22099M   26145.08689242  .00001564  00000+0  11240-3 0  99902 53476  97.4532 265.1172 0001141 137.9433 222.1882 15.05664679207472

JSON: /api/v1/satellites/53476 · /tle

For live sub-satellite position, see the globe view (requires WebGL).

§ Visibility from observer

Set your observer location to see the next 7 days of passes ≥ 10°. The values pass through the URL so the page stays shareable.

No JS? Fill the form by hand. The geolocation button needs JavaScript.